User: anonymous   Login
Location: ROBOsky.com Wild Flower Ridge Observatory
(43.9736°N, 79.9739°W)
Time: 21:34:38
(UTC-04:00)
Language:

Cosmos 1190 Rocket - Orbit

View from above orbital plane
View from above orbital plane
View from above satellite
View from above satellite

Ground track
Ground track

The orbit data is extracted from the following two-line orbital elements,

1 11870U 80056B   17086.90078263 +.00000056 +00000-0 +27651-4 0  9999
2 11870 074.0548 356.9568 0016850 326.6550 033.3540 14.36845286899298
Epoch (UTC): 27 March 2017 21:37:07
Eccentricity: 0.0016850
inclination: 74.0548°
perigee height: 757 km
apogee height: 781 km
right ascension of ascending node: 356.9568°
argument of perigee: 326.6550°
revolutions per day: 14.36845286
mean anomaly at epoch: 33.3540°
orbit number at epoch: 89929

The dashed part of the orbit path shows where the satellite is in the earth's shadow,  

DLR